GW6028 Weather Reports


Display with metric or nautical units.
time (UTC)temp
F
wind
direction
speed
MPH
gust
MPH
rain 1hr
in
rain 24hr
in
rain mn
in
humidity
%
barometer
mb
20260507075508 50 288 6.0 13.0 0.00 0.31 0.00 81 1006.8
20260507075012 50 89 5.0 13.0 0.00 0.31 0.00 81 1006.8
20260507074521 50 321 3.0 10.0 0.00 0.31 0.00 81 1006.5
20260507074005 50 338 4.0 9.0 0.00 0.31 0.00 82 1006.6
20260507073023 51 326 5.0 13.0 0.00 0.31 0.00 82 1006.2
20260507072511 51 276 7.0 13.0 0.00 0.31 0.00 82 1006.2
20260507072009 51 270 4.0 14.0 0.00 0.31 0.00 83 1006.2
20260507071526 51 304 5.0 14.0 0.00 0.31 0.00 83 1006.3
20260507071008 51 261 7.0 13.0 0.00 0.31 0.00 83 1006.5
20260507070509 51 281 6.0 13.0 0.00 0.31 0.00 83 1006.1
20260507070026 51 284 6.0 12.0 0.00 0.31 0.00 84 1006.1
20260507065513 51 291 6.0 10.0 0.00 0.31 0.00 85 1006.2
20260507065004 52 248 5.0 12.0 0.00 0.31 0.00 85 1006.1
20260507064519 52 278 6.0 12.0 0.00 0.31 0.00 85 1006.1
20260507064008 52 273 6.0 11.0 0.00 0.31 0.00 85 1005.8
20260507063507 52 293 4.0 12.0 0.00 0.31 0.00 85 1005.9
20260507063022 52 297 4.0 12.0 0.00 0.31 0.00 85 1005.8
20260507062512 52 281 6.0 10.0 0.00 0.31 0.00 85 1006.0
20260507061516 52 273 5.0 10.0 0.00 0.31 0.00 85 1005.9
20260507060007 52 302 6.0 11.0 0.00 0.31 0.00 85 1006.2
20260507054514 53 276 5.0 9.0 0.00 0.31 0.00 84 1006.1
20260507053018 53 319 7.0 13.0 0.00 0.31 0.00 82 1006.5
20260507052509 53 276 7.0 10.0 0.00 0.31 0.00 83 1006.4
20260507051505 53 316 6.0 14.0 0.00 0.31 0.00 83 1006.3
20260507051002 54 305 6.0 12.0 0.00 0.31 0.00 83 1006.4
20260507050502 54 310 6.0 14.0 0.00 0.31 0.00 83 1006.5
20260507050011 54 285 7.0 14.0 0.00 0.31 0.00 83 1006.4
20260507044526 55 311 5.0 11.0 0.00 0.31 0.00 85 1005.9
20260507041523 57 297 7.0 11.0 0.00 0.31 0.00 87 1006.2
20260507040010 57 293 8.0 16.0 0.00 0.31 0.00 87 1005.7
20260507035503 58 290 4.0 12.0 0.00 0.31 0.31 89 1005.7
20260507035004 58 287 7.0 12.0 0.00 0.31 0.31 89 1005.7
20260507034509 58 287 5.0 14.0 0.00 0.31 0.31 89 1005.6
20260507033015 59 264 3.0 9.0 0.00 0.31 0.31 91 1005.3
20260507031520 59 217 3.0 8.0 0.00 0.31 0.31 91 1005.0
20260507030510 59 196 5.0 11.0 0.00 0.31 0.31 90 1005.0
20260507025007 59 210 5.0 12.0 0.00 0.31 0.31 90 1005.1
20260507024506 59 229 4.0 9.0 0.00 0.31 0.31 90 1005.1
20260507024003 59 150 5.0 9.0 0.00 0.31 0.31 90 1005.1
20260507022004 59 205 5.0 11.0 0.00 0.31 0.31 90 1005.0
20260507021516 59 224 4.0 11.0 0.00 0.31 0.31 90 1005.1
20260507021010 59 216 5.0 11.0 0.00 0.31 0.31 90 1005.1
20260507015507 59 180 5.0 10.0 0.00 0.31 0.31 90 1005.3
20260507014527 59 219 5.0 11.0 0.00 0.31 0.31 90 1005.3
20260507013008 59 227 5.0 13.0 0.00 0.31 0.31 91 1005.4
20260507012507 59 245 6.0 11.0 0.00 0.31 0.31 91 1005.5
20260507011511 59 232 4.0 11.0 0.00 0.31 0.31 91 1005.4
20260507010504 59 233 5.0 11.0 0.00 0.31 0.31 91 1005.5
20260507005508 59 149 5.0 10.0 0.00 0.31 0.31 92 1005.4
20260507005008 59 224 4.0 8.0 0.00 0.31 0.31 92 1005.4
20260507004520 58 188 2.0 7.0 0.00 0.31 0.31 92 1005.5
20260507003025 58 197 4.0 7.0 0.06 0.31 0.31 91 1005.5
20260507002506 58 179 4.0 7.0 0.07 0.31 0.31 91 1005.5
20260507001003 58 225 4.0 10.0 0.09 0.31 0.31 91 1005.4
20260507000503 59 157 5.0 10.0 0.10 0.31 0.31 91 1005.4
20260507000014 59 218 5.0 9.0 0.11 0.31 0.31 91 1005.3
20260506235504 59 171 4.0 9.0 0.12 0.31 0.31 90 1005.4
20260506235008 59 198 3.0 9.0 0.13 0.31 0.31 90 1005.3
20260506234521 59 208 5.0 9.0 0.14 0.31 0.31 90 1005.4
20260506234006 60 196 5.0 11.0 0.14 0.30 0.30 90 1005.4
20260506233509 60 202 3.0 11.0 0.12 0.28 0.28 90 1005.3
20260506232011 60 198 6.0 9.0 0.09 0.24 0.24 90 1005.6
20260506225505 60 167 5.0 11.0 0.05 0.19 0.19 90 1005.7
20260506225003 60 212 5.0 11.0 0.04 0.18 0.18 91 1005.7
20260506224006 57 226 2.0 5.0 0.03 0.16 0.16 90 1005.8
20260506223504 56 181 2.0 6.0 0.03 0.16 0.16 89 1005.9
20260506223017 56 165 2.0 7.0 0.03 0.16 0.16 89 1005.8
20260506222505 56 161 3.0 7.0 0.03 0.16 0.16 88 1005.8
20260506222009 57 210 3.0 7.0 0.02 0.15 0.15 86 1005.9
20260506221521 59 157 3.0 9.0 0.03 0.15 0.15 85 1006.1
20260506221011 60 168 4.0 9.0 0.02 0.14 0.14 88 1006.0
20260506220510 60 214 4.0 12.0 0.03 0.14 0.14 89 1006.0
20260506220031 60 231 6.0 12.0 0.03 0.14 0.14 89 1006.1
20260506215510 60 212 3.0 12.0 0.04 0.14 0.14 89 1006.1
20260506215009 60 205 4.0 12.0 0.05 0.14 0.14 89 1006.2
20260506214528 60 171 4.0 9.0 0.05 0.14 0.14 89 1006.2
20260506214007 60 149 4.0 9.0 0.05 0.13 0.13 90 1006.3
20260506213503 59 181 5.0 9.0 0.06 0.13 0.13 90 1006.4
20260506213014 58 141 2.0 6.0 0.07 0.13 0.13 88 1006.4
20260506212502 58 224 3.0 6.0 0.08 0.13 0.13 87 1006.4
20260506212002 59 169 3.0 5.0 0.09 0.13 0.13 87 1006.5
20260506211004 59 143 3.0 8.0 0.09 0.12 0.12 86 1006.6
20260506210504 60 161 3.0 8.0 0.08 0.11 0.11 87 1006.7
20260506205503 60 214 4.0 10.0 0.07 0.10 0.10 86 1006.7
20260506205003 60 158 5.0 10.0 0.06 0.09 0.09 85 1006.6
20260506204512 60 153 5.0 10.0 0.07 0.09 0.09 85 1006.5
20260506204005 61 180 5.0 11.0 0.06 0.08 0.08 84 1006.6
20260506203504 61 141 6.0 13.0 0.06 0.07 0.07 84 1006.7
20260506203012 61 188 6.0 13.0 0.05 0.06 0.06 83 1006.7
20260506202504 61 210 5.0 10.0 0.04 0.05 0.05 83 1006.6
20260506202004 61 188 4.0 10.0 0.03 0.04 0.04 83 1006.6
20260506201512 60 138 4.0 11.0 0.03 0.03 0.03 83 1006.5
20260506201002 60 202 7.0 11.0 0.03 0.03 0.03 80 1006.6
20260506200502 61 195 5.0 11.0 0.03 0.03 0.03 80 1006.4
20260506195503 61 193 6.0 10.0 0.03 0.03 0.03 80 1006.5
20260506195003 62 149 5.0 12.0 0.03 0.03 0.03 79 1006.5
20260506194507 63 166 5.0 12.0 0.02 0.02 0.02 78 1006.6
20260506194003 63 215 2.0 9.0 0.02 0.02 0.02 78 1006.7
20260506193502 63 191 5.0 9.0 0.01 0.01 0.01 78 1006.8
20260506193014 63 205 2.0 8.0 0.01 0.01 0.01 78 1006.7
20260506192504 63 200 4.0 8.0 0.01 0.01 0.01 79 1006.7
20260506192007 62 147 4.0 10.0 0.01 0.01 0.01 80 1006.7
20260506191516 61 186 5.0 10.0 0.00 0.00 0.00 78 1006.6
20260506191004 61 206 4.0 11.0 0.00 0.00 0.00 79 1006.5
20260506190505 60 139 6.0 11.0 0.00 0.00 0.00 77 1006.6
20260506190012 60 143 6.0 11.0 0.00 0.00 0.00 77 1006.6
20260506185505 60 217 5.0 12.0 0.00 0.00 0.00 76 1006.5
20260506185004 60 167 4.0 13.0 0.00 0.00 0.00 76 1006.6
20260506184504 60 134 6.0 13.0 0.00 0.00 0.00 76 1006.5
20260506184004 60 199 7.0 16.0 0.00 0.00 0.00 76 1006.7
20260506183505 60 214 7.0 16.0 0.00 0.00 0.00 74 1006.8
20260506183010 60 159 7.0 16.0 0.00 0.00 0.00 73 1006.6
20260506182503 61 169 7.0 14.0 0.00 0.00 0.00 72 1006.6
20260506182006 61 96 7.0 14.0 0.00 0.00 0.00 71 1006.7
20260506181518 62 184 6.0 14.0 0.00 0.00 0.00 70 1006.9
20260506181004 63 151 6.0 13.0 0.00 0.00 0.00 69 1006.8
20260506180506 64 131 7.0 16.0 0.00 0.00 0.00 69 1006.9
20260506180018 63 224 7.0 16.0 0.00 0.00 0.00 70 1007.0
20260506175504 62 202 8.0 16.0 0.00 0.00 0.00 71 1007.0
20260506175004 62 149 7.0 16.0 0.00 0.00 0.00 69 1007.1
20260506174513 63 164 7.0 16.0 0.00 0.00 0.00 69 1006.9
20260506174005 63 222 8.0 16.0 0.00 0.00 0.00 69 1007.0
20260506173504 63 115 6.0 15.0 0.00 0.00 0.00 69 1007.1
20260506173008 63 136 7.0 14.0 0.00 0.00 0.00 70 1007.1
20260506172504 62 149 6.0 14.0 0.00 0.00 0.00 70 1007.1
20260506172003 63 137 8.0 18.0 0.00 0.00 0.00 67 1007.1
20260506171511 63 110 8.0 18.0 0.00 0.00 0.00 69 1007.2
20260506171005 62 239 9.0 18.0 0.00 0.00 0.00 72 1007.3
20260506170504 61 167 7.0 12.0 0.00 0.00 0.00 72 1007.3
20260506170016 60 172 7.0 13.0 0.00 0.00 0.00 73 1007.5
20260506165504 60 194 7.0 13.0 0.00 0.00 0.00 73 1007.6
20260506165005 60 205 6.0 11.0 0.00 0.00 0.00 73 1007.6
20260506164524 60 186 6.0 12.0 0.00 0.00 0.00 73 1007.6
20260506164009 60 127 7.0 13.0 0.00 0.00 0.00 73 1007.7
20260506163508 60 138 7.0 13.0 0.00 0.00 0.00 72 1007.7
20260506163031 60 151 7.0 12.0 0.00 0.00 0.00 72 1007.8
20260506162506 60 169 6.0 12.0 0.00 0.00 0.00 71 1007.9
20260506162004 61 141 7.0 12.0 0.00 0.00 0.00 71 1007.9
20260506161510 61 172 6.0 12.0 0.00 0.00 0.00 70 1008.0
20260506161004 61 132 6.0 11.0 0.00 0.00 0.00 71 1008.1
20260506160504 62 172 6.0 11.0 0.00 0.00 0.00 70 1008.3
20260506160015 63 134 6.0 11.0 0.00 0.00 0.00 68 1008.3
20260506155505 63 214 5.0 9.0 0.00 0.00 0.00 67 1008.5
20260506155008 66 142 5.0 11.0 0.00 0.00 0.00 63 1008.6
20260506154524 69 155 5.0 13.0 0.00 0.00 0.00 60 1008.6
20260506154010 70 213 8.0 15.0 0.00 0.00 0.00 62 1008.6
20260506153507 70 233 6.0 15.0 0.00 0.00 0.00 61 1008.9
20260506153020 71 192 8.0 15.0 0.00 0.00 0.00 61 1008.8
20260506152506 71 153 8.0 15.0 0.00 0.00 0.00 61 1008.8
20260506152009 71 208 8.0 15.0 0.00 0.00 0.00 61 1008.8
20260506151518 71 167 8.0 15.0 0.00 0.00 0.00 61 1008.8
20260506151008 71 190 9.0 14.0 0.00 0.00 0.00 60 1008.9
20260506150503 71 221 7.0 15.0 0.00 0.00 0.00 61 1009.0
20260506150010 71 217 6.0 15.0 0.00 0.00 0.00 62 1008.9
20260506145504 70 205 6.0 17.0 0.00 0.00 0.00 62 1008.9
20260506145004 70 227 8.0 17.0 0.00 0.00 0.00 61 1009.0
20260506144513 71 220 8.0 15.0 0.00 0.00 0.00 61 1008.8
20260506144006 70 214 7.0 19.0 0.00 0.00 0.00 63 1008.8
20260506143511 70 187 9.0 19.0 0.00 0.00 0.00 63 1008.8
20260506143021 70 241 10.0 19.0 0.00 0.00 0.00 63 1008.6
20260506142506 70 177 10.0 17.0 0.00 0.00 0.00 64 1008.6
20260506142009 69 202 9.0 14.0 0.00 0.00 0.00 64 1008.7
20260506141522 69 221 9.0 14.0 0.00 0.00 0.00 65 1008.8
20260506141008 68 243 8.0 13.0 0.00 0.00 0.00 66 1008.8
20260506140516 68 33 6.0 13.0 0.00 0.00 0.00 67 1008.8
20260506140024 68 229 6.0 13.0 0.00 0.00 0.00 67 1008.9
20260506135002 67 229 8.0 14.0 0.00 0.00 0.00 68 1009.1
20260506134513 67 219 6.0 13.0 0.00 0.00 0.00 68 1009.1
20260506134006 67 240 7.0 15.0 0.00 0.00 0.00 68 1009.3
20260506133506 67 231 8.0 15.0 0.00 0.00 0.00 68 1009.3
20260506133015 67 245 9.0 14.0 0.00 0.00 0.00 69 1009.3
20260506132506 66 253 6.0 15.0 0.00 0.00 0.00 69 1009.1
20260506132007 66 216 7.0 15.0 0.00 0.00 0.00 69 1009.2
20260506131519 66 207 7.0 17.0 0.00 0.00 0.00 69 1009.2
20260506131008 66 188 8.0 17.0 0.00 0.00 0.00 69 1009.4
20260506130511 66 220 8.0 17.0 0.00 0.00 0.00 69 1009.2
20260506130024 67 224 10.0 18.0 0.00 0.00 0.00 68 1009.5
20260506125509 66 214 8.0 18.0 0.00 0.00 0.00 69 1009.1
20260506125010 66 236 6.0 14.0 0.00 0.00 0.00 71 1009.4
20260506124523 65 229 7.0 14.0 0.00 0.00 0.00 71 1009.4
20260506124009 65 229 9.0 14.0 0.00 0.00 0.00 71 1009.3
20260506123505 65 234 8.0 13.0 0.00 0.00 0.00 71 1009.5
20260506123010 65 221 6.0 13.0 0.00 0.00 0.00 72 1009.5
20260506122507 64 200 7.0 13.0 0.00 0.00 0.00 72 1009.4
20260506122003 64 169 6.0 13.0 0.00 0.00 0.00 73 1009.2
20260506121517 64 215 8.0 13.0 0.00 0.00 0.00 73 1009.3
20260506121006 64 132 6.0 11.0 0.00 0.00 0.00 73 1009.4
20260506120511 64 226 7.0 14.0 0.00 0.00 0.00 73 1009.5
20260506120030 63 216 7.0 14.0 0.00 0.00 0.00 73 1009.5
20260506115507 63 203 6.0 14.0 0.00 0.00 0.00 74 1009.6
20260506115012 63 212 7.0 15.0 0.00 0.00 0.00 74 1009.6
20260506114524 63 209 7.0 15.0 0.00 0.00 0.00 74 1009.8
20260506114006 63 240 5.0 15.0 0.00 0.00 0.00 74 1009.7
20260506113508 63 215 7.0 15.0 0.00 0.00 0.00 74 1009.8
20260506113024 63 205 7.0 14.0 0.00 0.00 0.00 75 1009.7
20260506112512 63 212 6.0 14.0 0.00 0.00 0.00 75 1009.7
20260506112004 63 169 8.0 16.0 0.00 0.00 0.00 75 1009.6
20260506111513 62 236 9.0 16.0 0.00 0.00 0.00 75 1009.7
20260506111009 62 210 7.0 12.0 0.00 0.00 0.00 75 1009.8
20260506110507 62 209 6.0 14.0 0.00 0.00 0.00 75 1009.6
20260506110016 62 174 7.0 14.0 0.00 0.00 0.00 75 1009.6
20260506105512 62 218 6.0 12.0 0.00 0.00 0.00 75 1009.6
20260506105007 62 205 5.0 13.0 0.00 0.00 0.00 75 1009.6
20260506104520 62 216 6.0 13.0 0.00 0.00 0.00 75 1009.6
20260506104008 62 234 6.0 11.0 0.00 0.00 0.00 75 1009.5
20260506103508 61 262 6.0 11.0 0.00 0.00 0.00 75 1009.6
20260506103025 61 222 7.0 11.0 0.00 0.00 0.00 75 1009.5
20260506102508 61 158 4.0 11.0 0.00 0.00 0.00 75 1009.6
20260506102011 62 219 5.0 11.0 0.00 0.00 0.00 75 1009.6
20260506101526 62 218 6.0 11.0 0.00 0.00 0.00 75 1009.6
20260506101015 61 212 6.0 11.0 0.00 0.00 0.00 75 1009.6
20260506100504 61 250 6.0 11.0 0.00 0.00 0.00 75 1009.4
20260506095504 61 198 4.0 11.0 0.00 0.00 0.00 75 1009.3
20260506093503 61 221 6.0 12.0 0.00 0.00 0.00 74 1009.6
20260506093012 61 224 6.0 12.0 0.00 0.00 0.00 74 1009.6
20260506092504 61 225 5.0 11.0 0.00 0.00 0.00 74 1009.4
20260506092004 62 198 5.0 14.0 0.00 0.00 0.00 73 1009.4
20260506091508 62 185 8.0 14.0 0.00 0.00 0.00 73 1009.5
20260506091003 62 254 8.0 15.0 0.00 0.00 0.00 73 1009.5
20260506090504 62 233 8.0 15.0 0.00 0.00 0.00 73 1009.5
20260506090015 62 206 6.0 13.0 0.00 0.00 0.00 73 1009.5
20260506085505 62 236 7.0 15.0 0.00 0.00 0.00 72 1009.5
20260506085004 62 220 7.0 15.0 0.00 0.00 0.00 72 1009.5
20260506084517 62 195 6.0 13.0 0.00 0.00 0.00 72 1009.4
20260506084005 62 234 7.0 14.0 0.00 0.00 0.00 72 1009.4
20260506083510 62 238 8.0 14.0 0.00 0.00 0.00 72 1009.4
20260506083004 62 217 5.0 13.0 0.00 0.00 0.00 72 1009.3
20260506082506 62 185 5.0 13.0 0.00 0.00 0.00 71 1009.3
20260506082003 62 233 6.0 12.0 0.00 0.00 0.00 71 1009.2
20260506081509 63 246 7.0 13.0 0.00 0.00 0.00 70 1009.3
20260506081006 63 210 5.0 13.0 0.00 0.00 0.00 70 1009.2
20260506080504 63 221 6.0 13.0 0.00 0.00 0.00 70 1009.1